Other Public Products
Issued by NWS Grand Forks, ND

Home | Current Version | Previous Version | Graphics & Text | Print | Product List | Glossary On
Versions: 1 2 3 4 5 6 7 8 9 10 11 12 13 14 15 16 17 18 19 20 21 22 23 24 25 26 27 28 29 30 31 32 33 34 35 36 37 38 39 40 41 42 43 44 45 46 47 48 49 50
000
FPUS83 KFGF 310231
OPUFGF
PRAIRIE TO PINES WEATHER ROUNDUP
NATIONAL WEATHER SERVICE EASTERN NORTH DAKOTA/GRAND FORKS ND
800 PM CST FRI JAN 30 2015

 **SATELLITE DATA USED TO AUGMENT SKY COVER AT AUTOMATED STATIONS**
 *****  WEATHER ACROSS EASTERN NORTH DAKOTA  *****

CITY           SKY/WX    TMP DP  RH WIND       PRES   REMARKS
GRAND FORKS    CLOUDY    28  21  75 NW13      30.15R WCI  17
GRAND FORKS AF CLOUDY    26  21  79 N16       30.17R WCI  14
GRAND CITY NWS   N/A     27 N/A N/A N16         N/A  WCI  14
BUXTON           N/A     29  25  82 NW12        N/A  WCI  20
DEVILS LAKE    CLOUDY    23  19  86 N15       30.18R WCI  10
FARGO          CLEAR     23  20  88 SW3       30.13R
WAHPETON ARPT  CLEAR     27  23  86 W3        30.14R
$$

 *****  WEATHER ACROSS CENTRAL AND WESTERN NORTH DAKOTA  *****

CITY           SKY/WX    TMP DP  RH WIND       PRES   REMARKS
JAMESTOWN      CLOUDY    27  24  89 NW17      30.16R WCI  14
BISMARCK       CLEAR     33  28  81 N7        30.20R
MINOT          CLOUDY    25  21  85 N13       30.20S WCI  14
MINOT AFB      CLOUDY    25  25  99 N13       30.21R WCI  13
GARRISON         N/A     27  24  89 N7        30.18R WCI  19
WILLISTON      CLEAR     29  25  85 N9        30.20S WCI  20
DICKINSON      CLEAR     32  23  69 N7        30.15R
HETTINGER      CLEAR     27  21  78 N5        30.17R WCI  22
$$

 *****  OTHER OBSERVATIONS NORTHEAST NORTH DAKOTA  *****

CITY           SKY/WX    TMP DP  RH WIND       PRES   REMARKS
WALHALLA         N/A     19  19 100 N23G31    30.21R WCI   2
LANGDON        NOT AVBL
CAVALIER       CLOUDY    19  16  86 N15G22    30.20R WCI   5
GRAFTON        NOT AVBL
CANDO          CLOUDY    23  19  86 N15       30.20R WCI  10
FORT TOTTEN      N/A     23  21  91 NW8       29.95  WCI  14
ROLLA          CLOUDY    19  19 100 N17       30.18R WCI   4
RUGBY          CLOUDY    23  23 100 NW8       30.19S WCI  14
 ***** THE ABOVE OBSERVATIONS ARE NON NWS ARE NOT QUALITY
        CONTROLLED AND MAY MIS-REPORT RAIN FOR SNOW...
$$

 *****  OTHER OBSERVATIONS SOUTHEAST NORTH DAKOTA *****

CITY           SKY/WX    TMP DP  RH WIND       PRES   REMARKS
COOPERSTOWN    NOT AVBL
VALLEY CITY    FAIR      27  27 100 NW13      30.14R WCI  16
OAKES            N/A     28  28 100 W7        30.15R WCI  21
GWINNER        CLEAR     32  32 100 NW12      30.15R WCI  23
SHEYENNE NWR     N/A     27  24  88 W5        29.95  WCI  22
BUFFALO        NOT AVBL
WYNDMERE         N/A     30  28  93 W8          N/A  WCI  23
 ***** THE ABOVE OBSERVATIONS ARE NON NWS ARE NOT QUALITY
       CONTROLLED AND MAY MIS-REPORT RAIN FOR SNOW...
$$

  *****  WEATHER ACROSS NORTHERN MINNESOTA  *****

CITY           SKY/WX    TMP DP  RH WIND       PRES   REMARKS
FLAG ISLAND    CLOUDY    12  10  92 CALM      30.12F
WARROAD        CLOUDY    19  14  79 CALM      30.13S
ROSEAU         CLOUDY    21  16  79 CALM      30.12F
HALLOCK        CLOUDY    21  18  86 N18       30.16S WCI   6
THF RVR FALLS  CLOUDY    23  19  86 S6        30.11F WCI  16
HALSTAD          N/A     20  18  90 W3          N/A
FOSSTON        MOCLDY    19  18  93 SW7       30.11S WCI  10
BAUDETTE       CLOUDY    17  10  74 CALM      30.11F
WASKISH        CLOUDY    18  12  79 CALM      30.12F
CROOKSTON      CLOUDY    27  23  86 NW12      30.14R WCI  16
$$
  *****  WEATHER ACROSS CENTRAL AND WEST MINNESOTA  *****

CITY           SKY/WX    TMP DP  RH WIND       PRES   REMARKS
BEMIDJI        CLOUDY    22  17  78 S5        30.10F WCI  16
PARK RAPIDS    CLOUDY    23  18  81 S8        30.11F WCI  14
WADENA         CLOUDY    23  19  86 CALM      30.12F
DETROIT LAKES  CLEAR     23  21  93 S6        30.12F WCI  16
MOORHEAD       CLEAR     25  25 100 CALM      30.13F
FERGUS FALLS   CLEAR     21  21 100 SE5       30.16S WCI  15
ELBOW LAKE     FAIR      22  21  96 S7        30.13F WCI  14
MORRIS MN      CLEAR     25  23  93 S5        30.13F WCI  19
STAPLES        CLOUDY    23  18  80 S6        30.13F WCI  16
WHEATON        CLEAR     27  25  93 SW3       30.16F
$$
  *****  WEATHER ELSEWHERE ACROSS MINNESOTA  *****

CITY           SKY/WX    TMP DP  RH WIND       PRES   REMARKS
DULUTH         CLOUDY    15   4  61 SW7       30.16F WCI   5
INTRNTL FALLS  FLURRIES  13   8  81 SE3       30.13F
ELY            FLURRIES  12   5  73 S5        30.14F WCI   4
CLOQUET        CLOUDY    16   7  67 CALM      30.17F
BRAINERD       CLOUDY    24  16  71 S8        30.15F WCI  15
HIBBING        CLOUDY    16   5  62 S3        30.15F
ALEXANDRIA     CLEAR     21  19  92 S5        30.13F WCI  15
SAINT CLOUD    CLOUDY    24  17  74 SE5       30.19F WCI  18
MINNEAPOLIS    PTCLDY    26  18  71 VRB6      30.23F WCI  19
$$

  *****  WEATHER ACROSS SOUTH DAKOTA  *****

CITY           SKY/WX    TMP DP  RH WIND       PRES   REMARKS
SIOUX FALLS    PTCLDY    34  28  79 S10       30.17F
BROOKINGS      NOT AVBL
WATERTOWN      CLEAR     28  24  85 SE5       30.14R WCI  23
HURON          CLEAR     26  23  88 N3        30.15R
SISSETON         N/A     32  28  85 NW3       30.13S
ABERDEEN       CLEAR     28  27  96 W5        30.17R WCI  23
MITCHELL       CLEAR     38  28  67 S10       30.14F
PIERRE         PTCLDY    30  22  72 N6        30.14R WCI  24
MOBRIDGE       CLEAR     31  24  75 CALM      30.14R
RAPID CITY     MOCLDY    40  24  53 NW8       30.14S
$$

  *****  SOME WEATHER IN NEARBY STATES *****

CITY           SKY/WX    TMP DP  RH WIND       PRES   REMARKS
GLASGOW MT     CLEAR     30  26  85 E8        30.15F WCI  22
GREAT FALLS MT CLEAR     32  19  58 S8        30.05F WCI  25
CHEYENNE WY    CLOUDY    36  24  62 N8        30.09F
SCOTTSBLUFF NE CLOUDY    35  29  78 N3        30.11F
OMAHA NE       CLOUDY    34  25  69 S14       30.29F WCI  25
DES MOINES IA  FAIR      29  15  56 S7        30.33F WCI  22
DAVENPORT IA   CLEAR     21  15  78 S6        30.39F WCI  13
CHICAGO IL     FAIR      23  12  62 CALM      30.41S
EAU CLAIRE WI  CLOUDY    18   6  59 S3        30.26F
LA CROSSE WI   CLEAR     21  10  62 SE9       30.32F WCI  11
$$

  *****  SOME NATIONAL WEATHER *****

CITY           SKY/WX    TMP DP  RH WIND       PRES   REMARKS
LA GUARDIA NY  PTCLDY    23  10  57 NW26G36   29.99R WCI   6
RALEIGH NC     CLEAR     33   7  33 N6        30.27R
ATLANTA GA     PTCLDY    41  20  43 N13       30.32R
NEW ORLEANS LA MOCLDY    51  36  56 N8        30.34S
OKLAHOMA CITY  CLOUDY    44  24  45 E7        30.36F
ALBUQUERQUE NM CLOUDY    34  32  92 N9        30.07F
SALT LAKE CITY LGT RAIN  40  35  83 W7        29.99S
LOS ANGELES CA MOCLDY    61  54  77 W7        29.85S
BOISE ID       CLEAR     40  32  73 NW3       30.15F
SEATTLE WA     FOG       39  38  96 CALM      30.27F VSB 1/2
$$

*** WEATHER ACROSS MANITOBA...SASKATCHEWAN AND ONTARIO ***
                ***ONTARIO***

CITY           SKY/WX    TMP DP  RH WIND       PRES   REMARKS
GERALDTON      CLEAR     -2  -8  78 SW5       30.14F WCI -12
THUNDER BAY    FLURRIES   9   5  85 NE2       30.20F
SIOUX LOOKOUT  LGT SNOW   5   1  85 SW6       30.09F WCI  -6
TORONTO        PTCLDY     7  -4  61 NW12      30.36R WCI  -9
BIG TROUT LK   FLURRIES   0  -4  85 W8        30.04F WCI -15
PICKLE LAKE    LGT SNOW   3  -2  78 SW9       30.04R DRFTSNOWWCI -11
DRYDEN         FLURRIES   7   5  92 SW6       30.10F WCI  -3
KENORA         FLURRIES   9   5  85 SW6       30.11S WCI  -1
$$
                *** MANITOBA***

CITY           SKY/WX    TMP DP  RH WIND       PRES   REMARKS
BRANDON        CLOUDY    16  12  86 E2        30.24R
DAUPHIN        CLEAR      5   1  85 N6        30.32R WCI  -6
ISLAND LAKE    PTCLDY    -6 -11  77 NW10      30.16R WCI -23
PILOT MOUND      N/A     18  14  86 N16         N/A  WCI   3
THE PAS        CLEAR     -6 -11  77 N12       30.38R WCI -24
THOMPSON       PTCLDY   -17 -26  63 N13G22    30.34R WCI -39
WINNIPEG       FLURRIES  16  10  79 N17       30.21R WCI   0
LYNN LAKE      CLEAR    -22 -31  63 NW14G22   30.40R WCI -47
CHURCHILL      CRYSTALS -26 -33  68 NW29G37   30.23R VSB 1/2 WCI -60
GILLAM         CLEAR    -20 -31  57 NW21G29   30.26R WCI -49
$$
                ***SASKATCHEWAN***

CITY           SKY/WX    TMP DP  RH WIND       PRES   REMARKS
ESTEVAN        CLOUDY    23  19  86 N13       30.22S WCI  11
KINDERSLEY     LGT SNOW  19  18  93 NE14      30.23R FOG     WCI   6
LLOYDMINSTER   FLURRIES  10   5  79 NE18      30.33R WCI  -8
PRINCE ALBERT  CLOUDY     9   0  66 N8        30.40R WCI  -4
REGINA         FLURRIES  18  14  86 N9        30.26R WCI   6


USA.gov is the U.S. government's official web portal to all federal, state and local government web resources and services.